SL-14 DEB, 45296

Orbit data source: Space-Track

SL-14 DEB, 45296 is space debris in LEO originally from a launch on Thu, 15 Aug 1991 UTC launched from the Plesetsk Missile And Space Complex (PKMTR). Debris objects in space refer to the collection of defunct objects orbiting the Earth. Examples of debris include non-operational satellites, rocket bodies, and fragments generated from explosions, collisions, or faulty payload assembly.

Loading next visibility...
Identifier
45296, 1991-056AJ
Orbit
LEO
Country
Flag of CISCIS
Related business
Manufacturer
Unknown
Mission
Spacecraft
Bus & Motor
Unknown
Mass
Unknown
Launch date (UTC)
1991-08-15 (35 years ago)
Launch vehicle
Unknown
Launch site
Plesetsk Missile And Space Complex (PKMTR)
Object type
Payload
Rocket body
Debris
Shape & HBR
Unknown shape, 0.1 m
Radar Cross Section
Small (<0.1 m²)

Expand to show TLE details & history
Last TLE update: 8 hours ago

TLE from 8 hours ago
0 SL-14 DEB
1 45296U 91056AJ  26249.58375670  .00002242  00000-0  18396-2 0  9990
2 45296  82.6344 314.1300 0193292  45.5466 316.1319 13.80747007325510
Epoch: 2026-09-06T14:00Z
TLE epoch observation values (Epoch: 2026-09-06T14:00:36.578Z)
Latitude
-0.00013°
Longitude
118.30079°
Altitude
863.188 km
Speed
7.472 km/s
True Right ascension
20h 56m 31s
True Declination
0° 00' 00"
Sunlit
Object was in full shadow at epoch
Visualization orbit readout
Latitude
Unknown
Longitude
Unknown
Altitude
Unknown
Speed
Unknown
Apparent Right ascension
Unknown
Apparent Declination
Unknown
Sunlit
N/A
Visualization observer readout
Local Sidereal Time
13:38:29
Azimuth
Unknown
Elevation
Unknown
Doppler factor
Unknown
Orbital elements
Apogee altitude
1,100.199 km
Perigee altitude
816.581 km
Semi-major axis
7,336.527 km
Eccentricity
0.01933
Inclination
82.6344°
RAAN
314.13°
Arg. of periapsis
45.5466°
True anomaly
314.56993°
Mean anomaly
316.1319°
Eccentric anomaly
315.35364°
Mean motion
3.45388 °/min
Orbital period
104.23 mins
BSTAR
0.0018396
Loading maneuver chart data...
Computing Atmospheric mass density...
Loading historical data...
Loading historical data...
Loading historical data...
Loading historical data...
Loading historical data...
Loading historical data...
Loading historical data...

Documentation

Showing up to 5 results
|